Regional Weather Roundup
Issued by NWS

Home | Current Version | Previous Version | Graphics & Text | Print | Product List | Glossary On
Versions: 1 2 3 4 5 6 7 8 9 10 11 12 13 14 15 16 17 18 19 20 21 22 23 24 25 26 27 28 29 30 31 32 33 34 35 36 37 38 39 40 41 42 43 44 45 46 47 48 49 50
000
ASUS43 KMPX 021810
RWRMN
WEATHER ROUNDUP FOR MINNESOTA
NATIONAL WEATHER SERVICE TWIN CITIES/CHANHASSEN MN
100 PM CDT WED SEP 02 2015


NOTE: "FAIR" INDICATES FEW OR NO CLOUDS BELOW 12,000 FEET WITH NO
SIGNIFICANT WEATHER AND/OR OBSTRUCTIONS TO VISIBILITY. N/A MEANS
CURRENT SKY AND/OR WEATHER CONDITIONS ARE NOT AVAILABLE.

MNZ060>063-068>070-021900-
   Twin Cities Metro

CITY           SKY/WX    TMP DP  RH WIND       PRES   REMARKS
TWIN CITIES    CLOUDY    76  67  73 E9        29.90F
6HR MIN TEMP:  70; 6HR MAX TEMP:  76;

ST PAUL        CLOUDY    74  68  81 SE7       29.91S
CRYSTAL        CLOUDY    77  67  71 E7        29.89F
BLAINE         CLOUDY    75  72  88 E9        29.91F
LAKEVILLE      CLOUDY    79  72  78 SE3       29.90S
EDEN PRAIRIE   CLOUDY    78  70  76 E9        29.89S
6HR MIN TEMP:  70; 6HR MAX TEMP:  78;

SOUTH ST PAUL  PTSUNNY   75  67  76 SE6       29.91S
LAKE ELMO      CLOUDY    70  68  94 NE7       29.93F
$$
MNZ001>005-007-008-013>017-022>024-027-028-021900-
   Northwest Minnesota

CITY           SKY/WX    TMP DP  RH WIND       PRES   REMARKS
BEMIDJI        FAIR      82  62  51 SE17G23   29.90F
HALLOCK        FAIR      84  70  61 S14G21    29.81S
ROSEAU           N/A     84  70  61 S10       29.86R
WARROAD        FAIR      82  72  69 SE9       29.87S
THIEF RVR FALL FAIR      84  64  51 S15       29.85F
CROOKSTON      FAIR      84  66  54 S15       29.84S
FOSSTON        FAIR      84  59  42 S13G18    29.88S
DETROIT LAKES  FAIR      82  63  51 SE13G20   29.89R
MOORHEAD       FAIR      84  66  54 S10G16    29.84S
PARK RAPIDS    FAIR      82  61  48 E14       29.91S
MAHNOMEN       FAIR      83  64  53 SE10      29.87S
$$
MNZ006-009>011-018-025>026-021900-
   North Central Minnesota

CITY           SKY/WX    TMP DP  RH WIND       PRES   REMARKS
BAUDETTE       FAIR      83  69  62 S13       29.88F
FLAG ISLAND    FAIR      73  66  78 SE8       29.87S
INTL FALLS     PTSUNNY   78  65  63 VRB5      29.93F
6HR MIN TEMP:  60; 6HR MAX TEMP:  78; 6HR PCP: TRACE;

WASKISH        FAIR      81  72  74 E8        29.90S
BIG FORK       FAIR      79  66  65 S9        29.95S
LONGVILLE      FAIR      81  66  61 SE10      29.92F
GRAND RAPIDS     N/A     79  61  53 SE12G20   29.95F
CRANE LAKE     FAIR      72  64  78 SE5       29.98S
ORR            FAIR      79  61  53 S8        29.93F
COOK           FAIR      75  63  64 S5        29.96F
WALKER         FAIR      80  64  58 SE10      29.91F
$$
MNZ012-019>021-037-021900-
   Northeast Minnesota

CITY           SKY/WX    TMP DP  RH WIND       PRES   REMARKS
DULUTH         PTSUNNY   67  64  90 SE16      29.94F
6HR MIN TEMP:  64; 6HR MAX TEMP:  72; 6HR PCP:  1.83;

ELY            FAIR      68  63  83 E3        29.99S
HIBBING        FAIR      77  63  61 SE6       29.95F
EVELETH        FAIR      72  63  73 S3        29.96F
DULUTH HARBOR  FAIR      68  66  94 S7        29.94F
TWO HARBORS    FAIR      72  66  83 SE8       29.93F
SILVER BAY     PTSUNNY   68  64  88 N5        29.97R
GRAND MARAIS     N/A     59  53  80 NE8       29.97F
G MARAIS ARPRT FAIR      64  57  77 N3        30.03F
$$
MNZ029>031-032-039>041-046>048-054>057-064-021900-
   West Central Minnesota

CITY           SKY/WX    TMP DP  RH WIND       PRES   REMARKS
FERGUS FALLS   FAIR      82  66  57 SE9       29.84R
WHEATON        FAIR      81  70  69 E13       29.84S
MORRIS         FAIR      82  72  69 SE10G24   29.85R
ALEXANDRIA     FAIR      80  68  66 E13       29.90S
ELBOW LAKE     FAIR      81  69  67 SE12      29.86S
WADENA         FAIR      81  64  57 E13       29.90S
GLENWOOD       FAIR      81  70  69 E12       29.90R
APPLETON       FAIR      82  70  65 SE8       29.84R
BENSON         FAIR      82  68  61 SE9       29.86S
ORTONVILLE     FAIR      82  70  65 SE9       29.83S
MADISON        FAIR      82  72  69 E9        29.83S
WILLMAR        FAIR      81  72  74 E9        29.88S
$$
MNZ033>034-036-042>043-049>051-058-059-021900-
   Central Minnesota

CITY           SKY/WX    TMP DP  RH WIND       PRES   REMARKS
ST CLOUD       CLOUDY    76  69  79 E8        29.90S HAZE
6HR MIN TEMP:  66; 6HR MAX TEMP:  76;

SAUK CENTRE    CLOUDY    74  67  78 E12       29.91R
PAYNESVILLE    PTSUNNY   78  69  73 E8        29.90S
AITKIN         FAIR      82  66  57 E10       29.92F
PINE RIVER     FAIR      79  66  65 E12       29.96S
BRAINERD       PTSUNNY   77  66  68 E9        29.93S
STAPLES        FAIR      81  63  54 E9        29.90F
LONG PRAIRIE   PTSUNNY   77  68  73 E9        29.92R
LITTLE FALLS   PTSUNNY   79  64  61 SE6       29.91S
LITCHFIELD     FAIR      81  73  78 E8        29.89F
BUFFALO        CLOUDY    74  68  79 E6        29.91S
MAPLE LAKE     CLOUDY    76  71  85 E10       29.91S
$$
MNZ037-044-045-052-053-021900-
   East Central Minnesota

CITY           SKY/WX    TMP DP  RH WIND       PRES   REMARKS
PRINCETON      CLOUDY    75  70  83 E7        29.92S
MORA           PTSUNNY   73  64  73 E8        29.97R
CAMBRIDGE      CLOUDY    75  64  69 E5        29.92S
RUSH CITY      CLOUDY    72  67  82 E8        29.94F THUNDER
MOOSE LAKE     FAIR      73  64  73 SE6       29.96F
HINCKLEY       CLOUDY    72  66  83 NE9       29.97S
CLOQUET        FAIR      72  64  78 S12G17    29.94F
MCGREGOR       FAIR      79  64  61 SE12G18   29.95F
$$
MNZ071>073-080-081-089-090-097-098-021900-
   Southwest Minnesota

CITY           SKY/WX    TMP DP  RH WIND       PRES   REMARKS
MONTEVIDEO     FAIR      84  72  65 S6        29.86S
GRANITE FALLS  FAIR      82  73  73 E3        29.86S
CANBY          FAIR      84  72  65 SE8       29.84S HX  90
MARSHALL       FAIR      84  70  61 SE10      29.86S
REDWOOD FALLS  FAIR      83  72  69 S8        29.85F
OLIVIA         FAIR      79  68  69 SE6       29.86S
PIPESTONE      FAIR      82  72  69 S8        29.86F
WINDOM         FAIR      82  72  69 S9        29.88S
WORTHINGTON    FAIR      81  70  69 S15G21    29.88S
JACKSON        FAIR      82  72  69 SW15      29.89F
TRACY          FAIR      84  73  71 S8        29.86S HX  90
SLAYTON        FAIR      82  72  70 CALM      29.89S
$$
MNZ065>067-074>077-082>085-091>093-021900-
   South Central Minnesota

CITY           SKY/WX    TMP DP  RH WIND       PRES   REMARKS
MANKATO        PTSUNNY   82  72  69 S9        29.87F
NEW ULM        FAIR      81  72  74 SW9       29.87R
ST JAMES       FAIR      82  72  69 S9        29.88S
FAIRMONT       FAIR      82  66  57 SW12G17   29.88S
GLENCOE        CLOUDY    82  73  74 CALM      29.88S
FARIBAULT      CLOUDY    82  70  65 S10       29.90S
OWATONNA       FAIR      81  68  65 S10       29.90F
WASECA         FAIR      81  70  69 S14G21    29.90F
ALBERT LEA     FAIR      82  70  65 S14G20    29.90F
$$
MNZ078>079-086>088-094>096-021900-
   Southeast Minnesota

CITY           SKY/WX    TMP DP  RH WIND       PRES   REMARKS
ROCHESTER      PTSUNNY   80  69  69 S16       29.94F
6HR MIN TEMP:  69; 6HR MAX TEMP:  81; 6HR PCP:  0.03;

RED WING       PTSUNNY   79  70  73 SE13      29.90S
STANTON        CLOUDY    80  69  68 S6        29.89F
DODGE CENTER   PTSUNNY   79  70  73 S13       29.92F
WINONA         CLOUDY    81  66  61 S3        29.93F
AUSTIN         FAIR      82  70  65 SW17      29.92F
PRESTON        FAIR      79  67  66 S16       29.95F
$$
ABBREVIATIONS USED IN REMARKS
   TC - TEMPERATURES IN CELSIUS
  WCI - WIND CHILL INDEX
   HX - HEAT INDEX
  VSB - VISIBILITY
$$


USA.gov is the U.S. government's official web portal to all federal, state and local government web resources and services.